Location: Beulah
(33.1426°N, 83.0557°W)
Time: 19:31:29
(UTC+00:00)

Envisat - Pass Details

Date: 04 December 2021
Orbit: 764 x 766 km, 98.2° (Epoch: 28 January)

Event Time Altitude Azimuth Distance (km) Brightness Sun altitude
Rises 10:35:25 0° 10° (N) 3,236 6.2 -21.4°
Reaches altitude 10° 10:37:43 10° 9° (N) 2,307 5.4 -21.0°
Maximum altitude 10:42:48 76° 284° (WNW) 790 2.8 -19.9°
Drops below altitude 10° 10:47:50 10° 199° (SSW) 2,292 5.4 -18.9°
Sets 10:50:08 0° 198° (SSW) 3,214 6.2 -18.5°
